Latest Coastal Weather Observations for Cape Flattery

IDQ60701

Issued at 5:31 am EST Sunday 20 October 2019 (issued every 10 minutes, with the page automatically refreshed every 10 minutes)

About coastal observations | Map of coastal stations | Coastal observations for QLD | Marine services | Other Formats
Station Details ID: 031213 Name: CAPE FLATTERY Lat: -14.97 Lon: 145.31 Height: 18.5 m
Data from the previous 72 hours. | See also: Recent months at Cape Flattery
Date/Time
EST
Wind Sea
Height
m
Swell Vis
km
Cloud Weather Temp
°C
Press
hPa
Rain since
9am
mm
Dir  Spd
kts
Gust
kts
Height
m
Period
s
Dir
20/05:30am E 6 6 - - - - - - - 21.0 1014.9 0.0
20/05:00am E 5 6 - - - - - - - 21.0 1014.7 0.0
20/04:30am E 5 6 - - - - - - - 21.4 1014.2 0.0
20/04:00am E 5 6 - - - - - - - 21.9 1014.1 0.0
20/03:30am ESE 5 6 - - - - - - - 22.2 1014.1 0.0
20/03:00am ESE 6 7 - - - - - - - 22.5 1014.1 0.0
20/02:30am ESE 5 6 - - - - - - - 22.0 1014.2 0.0
20/02:00am E 5 7 - - - - - - - 21.9 1014.4 0.0
20/01:30am E 5 6 - - - - - - - 22.0 1014.7 0.0
20/01:00am E 5 7 - - - - - - - 22.3 1015.0 0.0
20/12:30am E 5 6 - - - - - - - 22.4 1015.2 0.0
20/12:00am E 5 7 - - - - - - - 22.6 1015.4 0.0
 
Date/Time
EST
Wind Sea
Height
m
Swell Vis
km
Cloud Weather Temp
°C
Press
hPa
Rain since
9am
mm
Dir  Spd
kts
Gust
kts
Height
m
Period
s
Dir
19/11:30pm E 5 6 - - - - - - - 22.9 1015.7 0.0
19/11:00pm E 5 6 - - - - - - - 22.9 1016.0 0.0
19/10:30pm E 5 6 - - - - - - - 22.8 1016.0 0.0
19/10:00pm E 5 7 - - - - - - - 22.8 1016.0 0.0
19/09:30pm E 5 7 - - - - - - - 23.3 1016.0 0.0
19/09:00pm E 5 6 - - - - - - - 23.4 1015.6 0.0
19/08:30pm E 5 6 - - - - - - - 23.4 1015.3 0.0
19/08:00pm E 5 6 - - - - - - - 23.4 1015.1 0.0
19/07:30pm E 5 8 - - - - - - - 23.3 1014.7 0.0
19/07:00pm E 3 4 - - - - - - - 23.6 1014.3 0.0
19/06:30pm E 4 5 - - - - - - - 24.4 1013.8 0.0
19/06:00pm E 5 8 - - - - - - - 25.4 1013.5 0.0
19/05:30pm ESE 7 10 - - - - - - - 26.2 1013.4 0.0
19/05:00pm ESE 9 11 - - - - - - - 26.8 1013.2 0.0
19/04:30pm ESE 9 14 - - - - - - - 27.2 1013.2 0.0
19/04:00pm E 9 13 - - - - - - - 27.8 1013.1 0.0
19/03:30pm ESE 9 13 - - - - - - - 28.2 1013.1 0.0
19/03:00pm ESE 8 13 - - - - - - - 29.1 1013.4 0.0
19/02:30pm ESE 10 15 - - - - - - - 28.7 1013.9 0.0
19/02:00pm ESE 10 14 - - - - - - - 27.9 1014.4 0.0
19/01:30pm ESE 11 14 - - - - - - - 28.5 1014.9 0.0
19/01:00pm SE 10 14 - - - - - - - 28.6 1015.5 0.0
19/12:30pm SE 11 15 - - - - - - - 28.6 1016.1 0.0
19/12:00pm SE 11 15 - - - - - - - 28.5 1016.6 0.0
19/11:30am SE 11 15 - - - - - - - 28.4 1016.9 0.0
19/11:00am SSE 11 15 - - - - - - - 28.4 1017.1 0.0
19/10:30am SE 11 15 - - - - - - - 27.8 1017.3 0.0
19/10:00am SSE 11 14 - - - - - - - 28.7 1017.6 0.0
19/09:30am SE 11 15 - - - - - - - 27.7 1017.7 0.0
19/09:00am SE 11 14 - - - - - - - 27.0 1017.8 0.0
19/08:30am SE 11 14 - - - - - - - 27.1 1017.7 0.0
19/08:00am SE 10 13 - - - - - - - 26.9 1017.5 0.0
19/07:30am SE 8 10 - - - - - - - 26.0 1017.0 0.0
19/07:00am SSE 8 11 - - - - - - - 24.5 1016.4 0.0
19/06:30am SSE 6 8 - - - - - - - 22.9 1016.1 0.0
19/06:00am ESE 4 5 - - - - - - - 21.7 1015.6 0.0
19/05:30am ESE 5 6 - - - - - - - 22.1 1015.1 0.0
19/05:00am ESE 5 6 - - - - - - - 21.9 1014.5 0.0
19/04:30am E 6 7 - - - - - - - 21.6 1014.1 0.0
19/04:00am E 6 7 - - - - - - - 21.4 1013.9 0.0
19/03:30am E 6 7 - - - - - - - 21.2 1013.9 0.0
19/03:00am E 5 6 - - - - - - - 21.1 1014.2 0.0
19/02:30am E 6 6 - - - - - - - 21.3 1014.5 0.0
19/02:00am ESE 4 5 - - - - - - - 21.2 1014.9 0.0
19/01:30am E 4 5 - - - - - - - 21.2 1014.9 0.0
19/01:00am E 6 7 - - - - - - - 21.4 1015.0 0.0
19/12:30am E 6 7 - - - - - - - 21.2 1015.5 0.0
19/12:00am E 4 5 - - - - - - - 20.9 1015.8 0.0
 
Date/Time
EST
Wind Sea
Height
m
Swell Vis
km
Cloud Weather Temp
°C
Press
hPa
Rain since
9am
mm
Dir  Spd
kts
Gust
kts
Height
m
Period
s
Dir
18/11:30pm E 3 5 - - - - - - - 20.8 1016.2 0.0
18/11:00pm ENE 5 5 - - - - - - - 21.5 1016.4 0.0
18/10:30pm E 4 4 - - - - - - - 21.5 1016.4 0.0
18/10:00pm E 4 5 - - - - - - - 21.9 1016.2 0.0
18/09:30pm E 5 5 - - - - - - - 22.1 1016.1 0.0
18/09:00pm E 5 6 - - - - - - - 22.4 1015.9 0.0
18/08:30pm E 5 6 - - - - - - - 22.8 1015.6 0.0
18/08:00pm E 4 5 - - - - - - - 23.2 1015.4 0.0
18/07:30pm E 5 7 - - - - - - - 23.7 1015.0 0.0
18/07:00pm E 5 8 - - - - - - - 24.1 1014.7 0.0
18/06:30pm E 7 9 - - - - - - - 24.6 1014.4 0.0
18/06:00pm E 8 12 - - - - - - - 25.3 1014.2 0.0
18/05:30pm E 10 14 - - - - - - - 25.8 1013.9 0.0
18/05:00pm ESE 9 13 - - - - - - - 26.5 1013.7 0.0
18/04:30pm ESE 10 14 - - - - - - - 27.1 1013.7 0.0
18/04:00pm ESE 11 15 - - - - - - - 27.8 1013.5 0.0
18/03:30pm ESE 10 14 - - - - - - - 27.7 1013.5 0.0
18/03:00pm ESE 11 16 - - - - - - - 28.1 1013.6 0.0
18/02:30pm ESE 12 17 - - - - - - - 27.4 1014.0 0.0
18/02:00pm ESE 12 18 - - - - - - - 28.6 1014.2 0.0
18/01:30pm ESE 12 16 - - - - - - - 27.9 1014.6 0.0
18/01:00pm ESE 12 19 - - - - - - - 28.4 1014.9 0.0
18/12:30pm SE 11 16 - - - - - - - 28.8 1015.3 0.0
18/12:00pm SE 12 17 - - - - - - - 28.8 1015.9 0.0
18/11:30am SE 12 16 - - - - - - - 29.0 1016.3 0.0
18/11:00am SE 12 18 - - - - - - - 29.1 1016.6 0.0
18/10:30am ESE 11 16 - - - - - - - 28.7 1016.9 0.0
18/10:00am SE 10 14 - - - - - - - 28.6 1016.8 0.0
18/09:30am ESE 11 15 - - - - - - - 27.6 1016.7 0.0
18/09:00am ESE 11 14 - - - - - - - 27.5 1016.5 0.0
18/08:30am ESE 10 14 - - - - - - - 27.2 1016.5 0.0
18/08:00am E 10 13 - - - - - - - 26.7 1016.5 0.0
18/07:30am ESE 9 14 - - - - - - - 25.4 1016.3 0.0
18/07:00am ESE 6 9 - - - - - - - 23.7 1015.8 0.0
18/06:30am ESE 5 6 - - - - - - - 22.2 1015.4 0.0
18/06:00am CALM 0 0 - - - - - - - 20.1 1015.0 0.0
18/05:30am E 6 7 - - - - - - - 21.2 1014.7 0.0
18/05:00am ESE 4 7 - - - - - - - 21.5 1014.3 0.0
18/04:30am E 6 6 - - - - - - - 21.5 1014.0 0.0
18/04:00am E 5 7 - - - - - - - 21.6 1013.8 0.0
18/03:30am E 4 7 - - - - - - - 21.9 1013.9 0.0
18/03:00am E 6 6 - - - - - - - 21.7 1014.2 0.0
18/02:30am E 6 7 - - - - - - - 22.1 1014.6 0.0
18/02:00am E 5 6 - - - - - - - 22.2 1014.9 0.0
18/01:30am E 6 7 - - - - - - - 22.5 1015.2 0.0
18/01:00am E 6 8 - - - - - - - 22.3 1015.6 0.0
18/12:30am E 5 6 - - - - - - - 22.4 1015.9 0.0
18/12:00am ESE 6 6 - - - - - - - 22.5 1016.1 0.0
 
Date/Time
EST
Wind Sea
Height
m
Swell Vis
km
Cloud Weather Temp
°C
Press
hPa
Rain since
9am
mm
Dir  Spd
kts
Gust
kts
Height
m
Period
s
Dir
17/11:30pm ESE 5 6 - - - - - - - 22.4 1016.4 0.0
17/11:00pm ESE 4 5 - - - - - - - 22.6 1016.5 0.0
17/10:30pm E 6 7 - - - - - - - 22.9 1016.5 0.0
17/10:00pm ESE 5 6 - - - - - - - 23.2 1016.6 0.0
17/09:30pm E 5 6 - - - - - - - 23.1 1016.4 0.0
17/09:00pm ESE 5 6 - - - - - - - 22.9 1016.0 0.0
17/08:30pm E 5 6 - - - - - - - 22.9 1015.7 0.0
17/08:00pm E 5 6 - - - - - - - 22.8 1015.4 0.0
17/07:30pm E 5 6 - - - - - - - 22.9 1015.1 0.0
17/07:00pm E 5 6 - - - - - - - 23.5 1014.9 0.0
17/06:30pm ESE 6 7 - - - - - - - 24.5 1014.8 0.0
17/06:00pm ESE 7 9 - - - - - - - 25.6 1014.7 0.0
17/05:30pm ESE 8 12 - - - - - - - 26.3 1014.5 0.0
17/05:00pm ESE 9 12 - - - - - - - 26.9 1014.3 0.0
17/04:30pm ESE 8 13 - - - - - - - 27.2 1014.0 0.0
17/04:00pm ESE 9 12 - - - - - - - 27.3 1014.0 0.0
17/03:30pm SE 10 14 - - - - - - - 27.3 1014.1 0.0
17/03:00pm ESE 9 13 - - - - - - - 28.3 1014.2 0.0
17/02:30pm ESE 9 16 - - - - - - - 28.0 1014.3 0.0
17/02:00pm ESE 9 13 - - - - - - - 28.3 1014.5 0.0
17/01:30pm ESE 9 13 - - - - - - - 28.2 1014.8 0.0
17/01:00pm SE 10 15 - - - - - - - 28.3 1015.0 0.0
17/12:30pm SE 10 16 - - - - - - - 28.1 1015.4 0.0
17/12:00pm ESE 10 15 - - - - - - - 28.1 1015.9 0.0
17/11:30am SE 10 14 - - - - - - - 29.6 1016.2 0.0
17/11:00am SE 10 16 - - - - - - - 28.0 1016.6 0.0
17/10:30am SE 8 14 - - - - - - - 28.0 1016.9 0.0
17/10:00am SE 10 14 - - - - - - - 27.4 1017.1 0.0
17/09:30am SE 8 14 - - - - - - - 28.4 1017.2 0.0
17/09:00am SE 9 14 - - - - - - - 27.0 1017.1 0.0
17/08:30am E 8 13 - - - - - - - 27.8 1016.9 0.0
17/08:00am E 8 11 - - - - - - - 27.4 1016.6 0.0
17/07:30am E 8 11 - - - - - - - 26.5 1016.2 0.0
17/07:00am ENE 6 9 - - - - - - - 25.3 1015.8 0.0
17/06:30am E 7 10 - - - - - - - 24.8 1015.3 0.0
17/06:00am ESE 6 8 - - - - - - - 24.5 1014.8 0.0

Other formats

Comma delimited format used in spreadsheet applications
http://www.bom.gov.au/fwo/IDQ60701/IDQ60701.94188.axf

JavaScript Object Notation format (JSON) in row-major order
http://www.bom.gov.au/fwo/IDQ60701/IDQ60701.94188.json

Data quality

Most of these data are generated automatically and are frequently updated. Quality checks on data are not normally performed. It is possible for incorrect values to appear. Refer to information at About Latest Weather Observations and please check the disclaimer before using these data.